This is the latest recevied weather packets stored in our database for station/object KK7KHO. If no packets are shown the sender has not sent any weather packets the latest 10 day(s).
| Time | Temp. | Humidity | Pressure | Rain* | Wind** | Luminosity | Snow |
|---|---|---|---|---|---|---|---|
| 1777397269 | 10.56° C | 91% | 1022.1 hPa | 0 mm | - | 89 W/m² | - |
| 1777396966 | 10.56° C | 91% | 1021.9 hPa | 0 mm | - | 106 W/m² | - |
| 1777396663 | 10.56° C | 91% | 1021.9 hPa | 0 mm | - | 79 W/m² | - |
| 1777396360 | 10.56° C | 92% | 1021.9 hPa | 0 mm | - | 101 W/m² | - |
| 1777396056 | 10.56° C | 92% | 1021.9 hPa | 0 mm | - | 112 W/m² | - |
| 1777395752 | 10° C | 92% | 1021.9 hPa | 0 mm | - | 109 W/m² | - |
| 1777395447 | 10° C | 92% | 1021.9 hPa | 0 mm | - | 91 W/m² | - |
| 1777395145 | 10° C | 92% | 1022 hPa | 0 mm | - | 83 W/m² | - |
| 1777394842 | 10° C | 92% | 1021.9 hPa | 0 mm | - | 92 W/m² | - |
| 1777394537 | 10.56° C | 92% | 1021.9 hPa | 0 mm | - | 99 W/m² | - |
| 1777394234 | 10.56° C | 92% | 1021.8 hPa | 0 mm | - | 97 W/m² | - |
| 1777393930 | 10.56° C | 92% | 1021.8 hPa | 0 mm | - | 134 W/m² | - |
| 1777393624 | 10° C | 92% | 1021.8 hPa | 0 mm | - | 125 W/m² | - |
| 1777393319 | 10° C | 92% | 1021.7 hPa | 0 mm | - | 124 W/m² | - |
| 1777393017 | 10° C | 92% | 1021.8 hPa | 0 mm | - | 108 W/m² | - |
| 1777392711 | 10° C | 92% | 1021.6 hPa | 0 mm | - | 101 W/m² | - |
| 1777392409 | 10° C | 92% | 1021.5 hPa | 0 mm | - | 103 W/m² | - |
| 1777392104 | 10° C | 91% | 1021.4 hPa | 0 mm | - | 94 W/m² | - |
| 1777391799 | 10° C | 91% | 1021.5 hPa | 0 mm | - | 105 W/m² | - |
| 1777391495 | 10.56° C | 90% | 1021.4 hPa | 0 mm | - | 144 W/m² | - |
| 1777391191 | 10.56° C | 88% | 1021.5 hPa | 0 mm | - | 207 W/m² | - |
| 1777390887 | 10.56° C | 88% | 1021.3 hPa | 0 mm | - | 222 W/m² | - |
| 1777390585 | 10.56° C | 88% | 1021.5 hPa | 0 mm | - | 237 W/m² | - |
| 1777390281 | 10.56° C | 88% | 1021.2 hPa | 0 mm | - | 207 W/m² | - |
| 1777389977 | 10.56° C | 87% | 1021.4 hPa | 0 mm | - | 196 W/m² | - |
* Rain latest hour (hover to see other rain measurements)
** Current wind speed in m/s (hover to see current wind gust speed)